SHT13X EGNT-EGLL

Flight info

Callsign SHT13X
Flight time N/A
Altitude 27000
Route GIRLI P18 GASKO P16 RIBEL UP16 CROFT DCT NUGRA
Aircraft A320/M-SDE3FGHIRWY/LB1

Departure

Time 2026-04-28 15:25
Airport Newcastle International Airport (EGNT)

Arrival

Time N/A
Airport London Heathrow Airport (EGLL)
Time Latitude Longitude Altitude Speed Heading
2026-04-28 14:53 55.03613 -1.70944 281 ft 0 kts 273°
2026-04-28 15:18 55.03613 -1.70915 280 ft 4 kts 276°
2026-04-28 15:19 55.03608 -1.70874 280 ft 3 kts 312°
2026-04-28 15:19 55.03590 -1.70849 280 ft 4 kts 352°
2026-04-28 15:19 55.03565 -1.70850 280 ft 2 kts
2026-04-28 15:19 55.03560 -1.70851 280 ft 0 kts
2026-04-28 15:23 55.03567 -1.70850 280 ft 3 kts
2026-04-28 15:23 55.03596 -1.70819 280 ft 6 kts 68°
2026-04-28 15:23 55.03594 -1.70732 280 ft 8 kts 95°
2026-04-28 15:24 55.03565 -1.70652 280 ft 8 kts 166°
2026-04-28 15:24 55.03504 -1.70652 280 ft 10 kts 180°
2026-04-28 15:24 55.03425 -1.70656 280 ft 12 kts 181°
2026-04-28 15:24 55.03369 -1.70581 280 ft 9 kts 78°
2026-04-28 15:25 55.03396 -1.70479 280 ft 18 kts 64°
2026-04-28 15:25 55.03563 -1.69846 281 ft 96 kts 66°
2026-04-28 15:25 55.03937 -1.68431 342 ft 151 kts 65°
2026-04-28 15:25 55.04404 -1.66787 1046 ft 150 kts 63°
2026-04-28 15:26 55.04880 -1.65160 1742 ft 155 kts 65°
2026-04-28 15:26 55.05352 -1.63383 2143 ft 172 kts 66°
2026-04-28 15:26 55.05864 -1.61370 2594 ft 187 kts 66°
2026-04-28 15:26 55.06410 -1.59229 3041 ft 205 kts 66°
2026-04-28 15:27 55.06800 -1.56747 3579 ft 220 kts 89°
2026-04-28 15:27 55.06365 -1.54211 4446 ft 224 kts 122°
2026-04-28 15:27 55.05157 -1.52447 5226 ft 237 kts 153°
2026-04-28 15:27 55.03469 -1.51997 5858 ft 259 kts 182°
2026-04-28 15:28 55.01649 -1.52611 6532 ft 274 kts 189°
2026-04-28 15:28 54.99759 -1.53230 7338 ft 278 kts 184°
2026-04-28 15:28 54.97818 -1.53551 8154 ft 284 kts 185°
2026-04-28 15:28 54.95919 -1.54643 8977 ft 292 kts 203°
2026-04-28 15:29 54.94159 -1.56382 9777 ft 298 kts 210°
2026-04-28 15:29 54.92407 -1.58360 10548 ft 303 kts 211°
2026-04-28 15:29 54.90607 -1.60362 11161 ft 314 kts 209°
2026-04-28 15:29 54.88695 -1.62367 11632 ft 328 kts 208°
2026-04-28 15:30 54.86680 -1.64399 12104 ft 341 kts 208°
2026-04-28 15:30 54.84588 -1.66496 12551 ft 354 kts 208°
2026-04-28 15:30 54.82415 -1.68693 12958 ft 368 kts 208°
2026-04-28 15:30 54.80175 -1.70987 13400 ft 379 kts 208°
2026-04-28 15:31 54.77933 -1.73303 14046 ft 382 kts 208°
2026-04-28 15:31 54.75639 -1.75660 14658 ft 386 kts 208°
2026-04-28 15:31 54.73314 -1.78030 15246 ft 391 kts 208°
2026-04-28 15:31 54.70890 -1.80201 15794 ft 393 kts 197°
2026-04-28 15:32 54.68259 -1.81424 16354 ft 393 kts 188°
2026-04-28 15:32 54.65558 -1.82272 16898 ft 396 kts 185°
2026-04-28 15:32 54.62822 -1.82997 17443 ft 400 kts 184°
2026-04-28 15:32 54.60053 -1.83748 17969 ft 405 kts 185°
2026-04-28 15:33 54.57265 -1.84579 18506 ft 409 kts 186°
2026-04-28 15:33 54.54490 -1.85472 19030 ft 413 kts 186°
2026-04-28 15:33 54.51661 -1.86408 19557 ft 416 kts 186°
2026-04-28 15:33 54.48809 -1.87336 20060 ft 419 kts 186°
2026-04-28 15:34 54.45931 -1.88244 20567 ft 422 kts 185°
2026-04-28 15:34 54.43029 -1.89143 21054 ft 425 kts 185°
2026-04-28 15:34 54.40105 -1.90045 21514 ft 429 kts 185°
2026-04-28 15:34 54.37162 -1.90956 22045 ft 430 kts 185°
2026-04-28 15:35 54.34230 -1.91875 22651 ft 429 kts 185°
2026-04-28 15:35 54.28369 -1.93711 23790 ft 427 kts 185°
2026-04-28 15:35 54.25487 -1.94611 24325 ft 427 kts 185°
2026-04-28 15:36 54.22620 -1.96075 24833 ft 436 kts 200°
2026-04-28 15:36 54.20063 -1.98915 25322 ft 443 kts 218°
2026-04-28 15:36 54.17808 -2.02507 25825 ft 445 kts 223°
2026-04-28 15:36 54.15643 -2.06286 26299 ft 445 kts 224°
2026-04-28 15:37 54.13479 -2.10057 26781 ft 444 kts 223°
2026-04-28 15:37 54.11267 -2.13732 27190 ft 445 kts 221°
2026-04-28 15:37 54.08996 -2.17317 27380 ft 444 kts 219°
2026-04-28 15:37 54.06712 -2.20839 27465 ft 439 kts 219°
2026-04-28 15:38 54.04506 -2.24260 27462 ft 433 kts 220°
2026-04-28 15:38 54.02243 -2.27627 27460 ft 430 kts 213°
2026-04-28 15:38 53.99720 -2.30266 27456 ft 424 kts 200°
2026-04-28 15:38 53.97006 -2.32193 27473 ft 422 kts 195°
2026-04-28 15:39 53.94246 -2.33871 27470 ft 421 kts 193°
2026-04-28 15:39 53.91473 -2.35485 27466 ft 421 kts 193°
2026-04-28 15:39 53.88705 -2.37148 27467 ft 422 kts 194°
2026-04-28 15:39 53.85956 -2.38894 27463 ft 423 kts 195°
2026-04-28 15:40 53.83248 -2.40682 27462 ft 423 kts 195°
2026-04-28 15:40 53.80473 -2.42517 27461 ft 423 kts 195°
2026-04-28 15:40 53.77764 -2.44275 27456 ft 423 kts 195°
2026-04-28 15:40 53.75015 -2.46028 27456 ft 422 kts 194°
2026-04-28 15:41 53.72260 -2.47761 27451 ft 422 kts 194°
2026-04-28 15:41 53.69509 -2.49495 27442 ft 422 kts 194°
2026-04-28 15:41 53.66760 -2.51238 27449 ft 422 kts 195°
2026-04-28 15:41 53.63979 -2.52714 27432 ft 415 kts 185°
2026-04-28 15:42 53.61155 -2.53191 27413 ft 402 kts 170°
2026-04-28 15:42 53.58434 -2.52554 27412 ft 391 kts 158°
2026-04-28 15:42 53.55811 -2.51436 27403 ft 388 kts 155°
2026-04-28 15:42 53.53241 -2.50222 27390 ft 389 kts 155°
2026-04-28 15:43 53.50630 -2.49032 27393 ft 390 kts 156°
2026-04-28 15:43 53.47972 -2.47933 27394 ft 392 kts 158°
2026-04-28 15:43 53.45316 -2.46919 27403 ft 398 kts 158°
2026-04-28 15:43 53.42619 -2.45910 27398 ft 394 kts 158°
2026-04-28 15:44 53.39944 -2.44889 27408 ft 395 kts 158°
2026-04-28 15:44 53.37265 -2.43832 27411 ft 395 kts 157°
2026-04-28 15:44 53.34594 -2.42762 27413 ft 394 kts 157°
2026-04-28 15:44 53.31928 -2.41695 27417 ft 394 kts 157°
2026-04-28 15:45 53.29256 -2.40636 27421 ft 395 kts 157°
2026-04-28 15:45 53.26582 -2.39588 27424 ft 395 kts 158°
2026-04-28 15:45 53.23942 -2.38560 27428 ft 395 kts 158°
2026-04-28 15:45 53.21265 -2.37519 27430 ft 395 kts 157°
2026-04-28 15:46 53.18594 -2.36477 27430 ft 395 kts 157°
2026-04-28 15:46 53.15918 -2.35431 27433 ft 395 kts 157°
2026-04-28 15:46 53.13248 -2.34387 27431 ft 395 kts 157°
2026-04-28 15:46 53.10573 -2.33344 27427 ft 395 kts 157°
2026-04-28 15:47 53.07896 -2.32304 27426 ft 395 kts 157°
2026-04-28 15:47 53.05222 -2.31262 27422 ft 395 kts 157°
2026-04-28 15:47 53.02666 -2.29952 27400 ft 383 kts 146°
2026-04-28 15:47 53.00356 -2.27900 27401 ft 373 kts 138°
2026-04-28 15:48 52.98177 -2.25592 27388 ft 371 kts 136°
2026-04-28 15:48 52.96040 -2.23210 27380 ft 370 kts 135°
2026-04-28 15:48 52.93897 -2.20837 27383 ft 371 kts 136°
2026-04-28 15:48 52.91724 -2.18517 27383 ft 372 kts 137°
2026-04-28 15:49 52.89523 -2.16235 27370 ft 373 kts 137°
2026-04-28 15:49 52.87315 -2.13963 27354 ft 374 kts 137°
2026-04-28 15:49 52.85106 -2.11682 27356 ft 375 kts 137°
2026-04-28 15:49 52.82928 -2.09416 27353 ft 375 kts 137°
2026-04-28 15:50 52.80722 -2.07110 27351 ft 375 kts 136°
2026-04-28 15:50 52.78517 -2.04803 27354 ft 376 kts 136°
2026-04-28 15:50 52.76307 -2.02507 27360 ft 375 kts 136°
2026-04-28 15:50 52.74097 -2.00220 27373 ft 374 kts 137°
2026-04-28 15:51 52.71891 -1.97946 27368 ft 373 kts 136°
2026-04-28 15:51 52.69702 -1.95691 27168 ft 368 kts 136°
2026-04-28 15:51 52.67558 -1.93483 26914 ft 360 kts 136°
2026-04-28 15:51 52.65443 -1.91307 26668 ft 357 kts 136°
2026-04-28 15:52 52.63344 -1.89134 26420 ft 356 kts 136°
2026-04-28 15:52 52.61731 -1.87462 26229 ft 354 kts 136°
2026-04-28 15:52 52.60249 -1.85931 26053 ft 354 kts 136°
2026-04-28 15:52 52.58167 -1.83791 25805 ft 352 kts 136°
2026-04-28 15:53 52.56092 -1.81664 25558 ft 351 kts 136°
2026-04-28 15:53 52.54015 -1.79542 25310 ft 351 kts 136°
2026-04-28 15:53 52.51947 -1.77421 25067 ft 350 kts 136°
2026-04-28 15:53 52.50717 -1.76158 24920 ft 349 kts 136°
2026-04-28 15:54 52.48660 -1.74051 24672 ft 348 kts 136°
2026-04-28 15:54 52.46611 -1.71957 24424 ft 347 kts 136°
2026-04-28 15:54 52.44565 -1.69865 24177 ft 346 kts 136°
2026-04-28 15:54 52.42551 -1.67810 23918 ft 345 kts 136°
2026-04-28 15:55 52.40516 -1.65739 23624 ft 344 kts 136°
2026-04-28 15:55 52.38489 -1.63680 23330 ft 342 kts 136°
2026-04-28 15:55 52.36472 -1.61627 23040 ft 341 kts 137°
2026-04-28 15:55 52.34466 -1.59590 22748 ft 338 kts 137°
2026-04-28 15:56 52.32470 -1.57568 22437 ft 337 kts 137°
2026-04-28 15:56 52.30480 -1.55556 22048 ft 336 kts 137°
2026-04-28 15:56 52.28495 -1.53546 21640 ft 336 kts 137°
2026-04-28 15:56 52.26535 -1.51561 21238 ft 336 kts 137°
2026-04-28 15:57 52.24550 -1.49555 20850 ft 335 kts 138°
2026-04-28 15:57 52.22569 -1.47561 20474 ft 334 kts 138°
2026-04-28 15:57 52.20724 -1.45413 20281 ft 319 kts 131°
2026-04-28 15:57 52.19031 -1.43102 20314 ft 317 kts 129°
2026-04-28 15:58 52.17379 -1.40735 20333 ft 316 kts 128°
2026-04-28 15:58 52.15734 -1.38370 20342 ft 316 kts 128°
2026-04-28 15:58 52.14073 -1.36019 20346 ft 317 kts 129°
2026-04-28 15:58 52.12399 -1.33686 20348 ft 317 kts 129°
2026-04-28 15:59 52.10716 -1.31360 20348 ft 317 kts 129°
2026-04-28 15:59 52.09606 -1.29824 20346 ft 317 kts 129°
2026-04-28 15:59 52.07368 -1.26719 20335 ft 311 kts 129°
2026-04-28 15:59 52.05917 -1.24722 20310 ft 299 kts 129°